www.pogodaiklimat.ru

Погода и климат >> Архив погоды >> Индия >> Тамилнад >> Ченнаи аэропорт


АРХИВ ПОГОДЫ в Ченнаи аэропорту

Время (UTC), дата Ветер
(напр.,м/с)
 
Видим.   Явления Облачность Т
(С)
Тd
(С)
f
(%)
Тe
(С)
Тes
(С)
Комфортность P
(гПа)
Po
(гПа)
Тmin
(С)
Tmax
(С)
R
(мм)
R24
(мм)
S
(см)
00 9.06 Ю 2 4000 м 4/1 600 м
[Sc Ci fib]
+30.0 +26.1 80 +45 +45 опасность
перегрева
1004.5 1002.8
03 9.06 Ю 3 4000 м 4/3 600 м
[Sc Ci fib]
+33.2 +25.3 63 +47 +52 опасность
перегрева
1005.2 1003.5 +28.1 +40.8
06 9.06 ЮЗ 3 10 км 5/1 600 м
[Sc Ac trans Ci fib]
+39.0 +24.4 44 +51 +64 опасность
перегрева
1002.9 1001.2
09 9.06 штиль 0 10 км 6/4 600 м
[Sc Ci fib]
+42.6 +22.3 32 +51 +62 опасность
перегрева
1001.4 999.7
12 9.06 ЮВ 4 10 км 6/3 600 м
[Sc Ci fib]
+37.2 +24.2 48 +49 +50 опасность
перегрева
1000.9 999.2 +43.0
15 9.06 ЮВ 8 4000 м 6/3 600 м
[Sc Ci fib]
+32.6 +25.2 65 +47 +47 опасность
перегрева
1003.2 1001.5
18 9.06 ЮВ 7 4000 м 6/4 600 м
[Sc Ci fib]
+31.8 +24.4 65 +44 +44 опасность
перегрева
1004.8 1003.1
21 9.06 Ю 6 4000 м 6/4 600 м
[Sc Ci fib]
+31.0 +23.2 63 +41 +41 опасность
перегрева
1003.4 1001.7
00 10.06 Ю 3 4000 м 8/4 600 м
[Sc Ci fib]
+31.0 +21.5 57 +39 +39 очень
душно
1003.3 1001.6
03 10.06 Ю 4 10 км 8/1 600 м
[Sc Ci fib]
+32.8 +20.9 50 +40 +44 очень
душно
1004.6 1002.9 +28.8 +43.0
06 10.06 Ю 5 10 км 8/1 600 м
[Sc Ac trans Ci fib]
+37.8 +22.2 41 +46 +52 опасность
перегрева
1004.3 1002.6
09 10.06 Ю 3 10 км 5/0 2000 м
[Ac trans Ci fib]
+41.0 +23.1 36 +50 +59 опасность
перегрева
1001.0 999.3
12 10.06 ЮВ 5 10 км 9/1 600 м
[Sc Ac trans Cs]
+34.8 +24.3 55 +47 +48 опасность
перегрева
1001.6 999.9 +41.5
15 10.06 ЮВ 3 4000 м 8/5 600 м
[Sc Ac trans Ci fib]
+32.0 +24.9 66 +45 +45 опасность
перегрева
1003.8 1002.1
18 10.06 ЮВ 3 4000 м 9/5 600 м
[Sc Ac trans Ci fib]
+33.4 +20.6 47 +40 +40 очень
душно
1004.3 1002.6
21 10.06 штиль 0 4000 м 6/4 600 м
[Sc Ci fib]
+32.6 +21.7 53 +41 +41 опасность
перегрева
1003.5 1001.8
00 11.06 Ю 2 4000 м 6/3 600 м
[Sc Ci fib]
+31.4 +22.3 59 +41 +41 опасность
перегрева
1003.5 1001.8
03 11.06 ЮЗ 2 10 км 6/1 600 м
[Sc Ac trans Cs]
+34.0 +22.0 50 +43 +48 опасность
перегрева
1005.5 1003.8 +29.6 +41.5
06 11.06 Ю 5 10 км 9/4 600 м
[Sc Ac trans Cs]
+39.0 +23.4 41 +49 +53 опасность
перегрева
1004.0 1002.3
09 11.06 Ю 3 10 км 8/3 450 м
[Sc Ac trans Ci fib]
+40.4 +20.5 32 +46 +52 опасность
перегрева
1001.2 999.5
12 11.06 ЮВ 4 10 км 5/3 450 м
[Sc Ac trans Ci fib]
+35.4 +23.4 50 +46 +46 опасность
перегрева
1001.2 999.5 +41.5
15 11.06 Ю 2 4000 м 8/4 600 м
[Sc Ac trans]
+32.4 +25.7 68 +48 +48 опасность
перегрева
1003.4 1001.7
18 11.06 штиль 0 4000 м 6/5 600 м
[Sc diur, vesp Ac trans]
+32.2 +25.5 68 +47 +47 опасность
перегрева
1004.0 1002.3
21 11.06 ЮЗ 3 4000 м 4/3 600 м
[Sc Ac trans]
+32.6 +24.0 61 +45 +45 опасность
перегрева
1003.2 1001.5
00 12.06 штиль 0 4000 м 4/1 600 м
[Sc diur, vesp Ci fib]
+31.2 +23.4 63 +42 +42 опасность
перегрева
1003.7 1002.0
03 12.06 ЮЗ 3 10 км 3/1 600 м
[Sc Ci fib]
+34.0 +22.0 50 +43 +49 опасность
перегрева
1005.1 1003.4 +29.4 +41.5
06 12.06 ЮЗ 3 10 км 3/1 600 м
[Sc Ci fib]
+39.0 +23.0 40 +48 +65 опасность
перегрева
1004.7 1003.0
09 12.06 Ю 4 10 км 5/5 450 м
[Sc]
+40.4 +22.3 36 +49 +54 опасность
перегрева
1001.6 999.9
12 12.06 ЮВ 4 10 км 8/8 450 м
[Cu Sc]
+36.0 +24.4 51 +48 +48 опасность
перегрева
1002.4 1000.7 +41.6
15 12.06 ЮВ 3 4000 м 6/4 600 м
[Sc Ci fib]
+33.0 +25.7 66 +48 +48 опасность
перегрева
1004.6 1002.9
18 12.06 ЮЗ 4 4000 м 5/4 600 м
[Sc Ci fib]
+35.0 +21.5 46 +43 +43 опасность
перегрева
1004.7 1003.0
21 12.06 ЮЗ 4 4000 м 3/3 600 м
[Sc]
+33.0 +21.5 51 +41 +41 опасность
перегрева
1003.9 1002.2
00 13.06 ЮЗ 3 4000 м 5/3 540 м
[Sc As op]
+31.2 +21.8 57 +40 +40 очень
душно
1004.6 1002.9
03 13.06 З 5 10 км 6/3 600 м
[Sc Ac trans Ci fib]
+34.4 +21.8 48 +43 +45 опасность
перегрева
1007.1 1005.4 +29.5 +41.6
06 13.06 З 4 10 км 8/4 600 м
[Sc Ac trans]
+37.6 +23.3 44 +48 +53 опасность
перегрева
1006.6 1004.9
09 13.06 В 5 10 км 6/6 450 м
[Sc]
+36.4 +22.9 46 +46 +49 опасность
перегрева
1003.9 1002.2
12 13.06 В 4 10 км 8/5 450 м
[Sc Ci fib]
+35.0 +22.9 50 +45 +45 опасность
перегрева
1003.7 1002.0 +39.5
15 13.06 ЮВ 4 4000 м 6/3 600 м
[Sc Ci fib]
+31.4 +23.0 61 +42 +42 опасность
перегрева
1005.3 1003.6
18 13.06 ЮЗ 5 4000 м 8/5 600 м
[Sc Ci fib]
+30.0 +22.0 62 +39 +39 очень
душно
1006.9 1005.2 0.0
21 13.06 З 2 4000 м 5/1 600 м
[Sc Ac trans]
+29.0 +22.9 70 +39 +39 очень
душно
1004.6 1002.9 0.0
00 14.06 ЮЗ 2 4000 м 6/1 600 м
[Sc Ac trans]
+29.4 +22.3 66 +38 +38 очень
душно
1005.6 1003.9 0.0
03 14.06 ЮЗ 4 10 км ясно +34.4 +23.8 54 +46 +51 опасность
перегрева
1006.8 1005.1 +27.5 +39.5 0.0
06 14.06 ЮЗ 6 10 км ясно +38.4 +23.0 41 +48 +57 опасность
перегрева
1005.3 1003.6
09 14.06 Ю 3 10 км 8/6 450 м
[Sc Ci fib]
+39.4 +22.1 37 +47 +52 опасность
перегрева
1002.8 1001.1
12 14.06 ЮВ 4 10 км 5/3 450 м
[Sc Ci fib]
+40.0 +22.2 36 +48 +48 опасность
перегрева
1002.0 1000.3 +41.1
15 14.06 ЮВ 3 4000 м 3/3 600 м
[Sc Ci fib]
+32.4 +25.1 65 +46 +46 опасность
перегрева
1005.2 1003.5
18 14.06 ЮВ 3 4000 м 3/3 600 м
[Sc Ci fib]
+31.4 +26.1 74 +47 +47 опасность
перегрева
1006.0 1004.3
21 14.06 Ю 1 4000 м 3/3 600 м
[Sc Ci fib]
+31.2 +24.7 68 +44 +44 опасность
перегрева
1004.5 1002.8
00 15.06 Ю 2 4000 м 3/0
[Ci fib]
+31.2 +23.1 62 +41 +41 опасность
перегрева
1005.2 1003.5
03 15.06 З 3 10 км 1/0
[Ci fib]
+35.0 +23.9 53 +47 +54 опасность
перегрева
1007.1 1005.4 +27.4 +41.1
06 15.06 З 3 10 км 1/0
[Ci fib]
+38.4 +23.0 41 +48 +64 опасность
перегрева
1005.4 1003.7
09 15.06 ЮВ 4 4000 м 6/5 600 м
[Sc Ci fib]
+42.0 +19.9 28 +47 +51 опасность
перегрева
1002.8 1001.1
12 15.06 В 5 4000 м 6/5 600 м
[Sc Ci fib]
+34.6 +25.0 58 +48 +49 опасность
перегрева
1003.2 1001.5 +42.1
15 15.06 Ю 5 4000 м 4/4 600 м
[Sc]
+32.0 +26.1 71 +48 +48 опасность
перегрева
1005.6 1003.9
18 15.06 ЮВ 3 4000 м 4/3 600 м
[Sc Ac trans]
+32.2 +22.9 58 +42 +42 опасность
перегрева
1005.9 1004.2
21 15.06 ЮВ 3 4000 м 4/3 600 м
[Sc Ac trans]
+31.6 +25.1 69 +46 +46 опасность
перегрева
1004.5 1002.8

 

Местоположение метеостанции Ченнаи аэропорт (Тамилнад, Индия): широта 13.00 долгота 80.18 высота над уровнем моря 16 м.

В архиве по умолчанию представлена погода в Ченнаи аэропорту за последнюю неделю. Архивные данные за месяц целиком и за предыдущие месяцы, начиная с января 2011 года, Вы можете получить, выбрав интересующий диапазон дат из раскрывающегося списка и нажав кнопку "Ввод!".


*Определитесь, кто Вы:
робот инопланетянин человек

Внимание! Время в таблицах - всемирное. Для получения местного времени необходимо прибавить поправку, которая равна 5.5 ч.

Смотрите также архив погоды в соседних городах и на ближайших метеорологических станциях:

Погода в Ченнаи (Тамилнад, Индия) (8 км)
Погода в Терутани (Тамилнад, Индия) (72 км)
Погода в Тирупати (Андхра-Прадеш, Индия) (99 км)
Погода в Веллоре (Тамилнад, Индия) (112 км)
Погода в Пондичерри (Пондичерри, Индия) (121 км)
Погода в Куддалоре (Тамилнад, Индия) (144 км)
Погода в Неллуру (Андхра-Прадеш, Индия) (163 км)
Погода в Парангипеттае (Тамилнад, Индия) (173 км)
Погода в Тирупатчере (Тамилнад, Индия) (184 км)
Погода в Маданапалле (Андхра-Прадеш, Индия) (191 км)

Пояснения к столбцам:

Ветер - указаны скорость ветра в м/с - средняя за 10 мин, порывы в срок и между сроками (в фигурных скобках) и направление, откуда дует ветер: С - северный, СВ - северо-восточный, В - восточный, ЮВ - юго-восточный, Ю - южный, ЮЗ - юго-западный, З - западный, СЗ - северо-западный.
Видимость - горизонтальная дальность видимости в метрах или километрах. При видимости от 1 до 10 км при отсутствии осадков обычно наблюдается дымка, при ухудшении видимости до 1 км и менее - туман. В сухую погоду видимость может ухудшаться дымом, пылью или мглою.
Явления - указаны атмосферные явления, наблюдавшиеся в срок или в последний час перед сроком; фигурными скобками обозначены явления, наблюдавшиеся между сроками (за 1-3 часа до срока); квадратными скобками обозначены град или гололедные отложения с указанием их диаметра в мм.
Облачность - указаны через наклонную черту общая и нижняя облачность в баллах и высота нижней границы облаков в метрах; квадратными скобками обозначены формы облаков: Ci - перистые, Cs - перисто-слоистые, Cc - перисто-кучевые, Ac - высококучевые, As - высокослоистые, Sc - слоисто-кучевые, Ns - слоисто-дождевые, Cu - кучевые, Cb - кучево-дождевые. Подробнее классификацию облаков см. в Атласе облаков (PDF).
T - Температура воздуха - температура, измеренная на высоте 2 м над землей.
Td - Температура точки росы - температура, при понижении до которой содержащийся в воздухе водяной пар достигнет насыщения.
f - Относительная влажность воздуха - влажноcть воздуха, измеренная на высоте 2 м над землей.
Te - Эффективная температура - температура, которую ощущает одетый по сезону человек в тени. Характеристика душности погоды. При расчете учитывается влияние влажности воздуха и скорости ветра на теплоощущения человека.
Tes - Эффективная температура на солнце - температура, которую ощущает человек, с поправкой на солнечный нагрев. Характеристика знойности погоды. Зависит от высоты солнца над горизонтом, облачности и скорости ветра. Ночью, в пасмурную погоду, а также при ветре 12 м/с и более поправка равна нулю.
P - Атмосферное давление - приведенное к уровню моря атмосферное давление.
Po - Атмосферное давление - измеренное на уровне метеостанции атмосферное давление.
Tmin - Минимальная температура - минимум температуры воздуха на высоте 2 м над землей.
Tmax - Максимальная температура - максимум температуры воздуха на высоте 2 м над землей.
R - Количество осадков - Количество выпавших осадков за период времени, мм. При наведении курсора мыши на число - период времени, за который выпало указанное количество осадков.
R24 - Количество осадков - Количество выпавших осадков за 24 часа, мм.
S - Снежный покров - Высота снежного покрова, см. При наведении курсора мыши на число - состояние снежного покрова и степень покрытия местности в баллах.